Flag for Mongolia Weather past 2 weeks in Ulaanbaatar, Mongolia

Now
63 °F

Passing clouds.


Feels Like: 63 °F
Forecast: 51 / 71 °F
Wind: 8 mph from Northeast

Location: Ulan-Bator

Current Time: Jul 31, 2014 at 11:48:02 PM

Latest Report: Jul 31, 2014 at 11:30 PM


Visibility: N/A

Pressure: 29.86 "Hg

Humidity: 39%

Dew point: 37 °F

Location of UlaanbaatarLocation

Historic Weather in Ulaanbaatar — Graph

°F

Ulaanbaatar temperature yesterday

Maximum temperature yesterday: 82 °F (at 3:30 PM)
Minimum temperature yesterday: 57 °F (at 1:00 AM)
Average temperature yesterday: 72 °F

Past Weeks' High & Low Weather Summary

 TemperatureHumidityPressure
High90 °F (Jul 25, 4:30 PM)100% (Jul 20, 2:00 AM)30.01 "Hg (Jul 20, 2:00 AM)
Low43 °F (Jul 21, 3:30 AM)15% (Jul 31, 11:30 AM)29.59 "Hg (Jul 30, 4:00 AM)
Average65 °F62%29.81 "Hg
* Reported Jul 16 10:00 PM — Jul 31 10:30 PM, Ulaanbaatar, Weather by CustomWeather, © 2014

Note: Actual official high and low records may vary slightly from our data, if they occured in-between our weather recording intervals... More about our weather records

Advertising

Ulaanbaatar weather history for previous 24 hours

 ConditionsComfort  
Time TempWeatherWind HumidityBarometerVisibility
10:30 PM
Jul 31
64 °FPassing clouds.8 mph32%29.86 "HgN/A
10:00 PM59 °FPassing clouds.1 mph42%29.86 "HgN/A
9:30 PM61 °FPassing clouds.3 mph42%29.86 "HgN/A
9:00 PM68 °FScattered clouds.3 mph28%29.86 "HgN/A
8:30 PM70 °FScattered clouds.3 mph23%29.83 "HgN/A
8:00 PM72 °FScattered clouds.6 mph20%29.83 "HgN/A
7:30 PM73 °FPassing clouds.6 mph22%29.83 "HgN/A
7:00 PM73 °FPassing clouds.6 mph17%29.83 "HgN/A
6:30 PM75 °FPassing clouds.10 mph19%29.83 "HgN/A
6:00 PM75 °FPassing clouds.8 mph16%29.83 "HgN/A
5:30 PM75 °FPassing clouds.3 mph18%29.83 "HgN/A
5:00 PM75 °FPassing clouds.13 mph19%29.86 "HgN/A
4:30 PM75 °FPassing clouds.10 mph22%29.83 "HgN/A
4:00 PM75 °FPassing clouds.13 mph19%29.83 "HgN/A
3:30 PM75 °FPassing clouds.13 mph18%29.83 "HgN/A
3:00 PM73 °FPassing clouds.10 mph23%29.86 "HgN/A
2:30 PM75 °FPassing clouds.6 mph18%29.83 "HgN/A
2:00 PM75 °FPassing clouds.10 mph21%29.83 "HgN/A
1:30 PM75 °FPassing clouds.13 mph21%29.83 "HgN/A
1:00 PM73 °FPassing clouds.15 mph19%29.83 "HgN/A
12:30 PM73 °FPassing clouds.13 mph17%29.83 "HgN/A
12:00 PM75 °FPassing clouds.10 mph16%29.86 "HgN/A
11:30 AM73 °FPassing clouds.10 mph15%29.83 "HgN/A
11:00 AM73 °FPassing clouds.10 mph19%29.86 "HgN/A
10:30 AM72 °FPassing clouds.10 mph22%29.83 "HgN/A
10:00 AM70 °FSunny.3 mph33%29.83 "Hg10 mi
9:30 AM68 °FSunny.No wind38%29.83 "Hg10 mi
9:00 AM66 °FSunny.No wind37%29.83 "Hg10 mi
8:30 AM66 °FSunny.No wind40%29.83 "Hg10 mi
8:00 AM64 °FSunny.1 mph43%29.83 "Hg10 mi
7:30 AM61 °FSunny.No wind45%29.83 "Hg10 mi
7:00 AM54 °FSunny.1 mph67%29.83 "Hg10 mi
6:30 AM48 °FSunny.3 mph71%29.83 "Hg10 mi
6:00 AM46 °FClear.3 mph76%29.80 "Hg10 mi
5:30 AM52 °FPassing clouds.6 mph62%29.80 "HgN/A
5:00 AM50 °FPassing clouds.6 mph71%29.80 "HgN/A
4:30 AM59 °FPassing clouds.No wind55%29.80 "HgN/A
4:00 AM59 °FPassing clouds.3 mph55%29.77 "HgN/A
3:00 AM61 °FPassing clouds.3 mph48%29.77 "HgN/A
2:30 AM64 °FPassing clouds.3 mph32%29.77 "HgN/A
2:00 AM66 °FPassing clouds.1 mph30%29.77 "HgN/A
1:30 AM68 °FPassing clouds.3 mph26%29.77 "HgN/A
1:00 AM66 °FPassing clouds.6 mph28%29.77 "HgN/A
12:30 AM64 °FPassing clouds.6 mph32%29.77 "HgN/A
12:00 AM63 °FPassing clouds.1 mph45%29.74 "HgN/A
11:30 PM
Jul 30
63 °FPassing clouds.1 mph37%29.74 "HgN/A
11:00 PM64 °FPassing clouds.No wind40%29.74 "HgN/A
Weather by CustomWeather, © 2014

See weather overviewHow to use our weather pages